Flag for Canada Weather past 2 weeks in Newmarket, Ontario, Canada

Now
7 °F

Passing clouds.


Feels Like: -6 °F
Forecast: -2 / 11 °F
Wind: 8 mph from Northwest

Location: Borden

Current Time: Mar 5, 2015 at 1:40:09 AM

Latest Report: Mar 5, 2015 at 1:00 AM


Visibility: 9 mi

Pressure: 30.22 "Hg

Humidity: 72%

Dew point: 0 °F

Location of NewmarketLocation

Historic Weather in Newmarket — Graph

°F

Newmarket temperature yesterday

Maximum temperature yesterday: 30 °F (at 12:00 AM)
Minimum temperature yesterday: 10 °F (at 11:02 PM)
Average temperature yesterday: 24 °F

Past Weeks' High & Low Weather Summary

 TemperatureHumidityPressure
High30 °F (Mar 3, 10:00 PM)100% (Feb 21, 7:00 PM)30.77 "Hg (Feb 21, 7:00 PM)
Low-20 °F (Feb 27, 6:00 AM)38% (Feb 20, 4:00 PM)29.51 "Hg (Mar 3, 8:56 PM)
Average7 °F71%30.16 "Hg
* Reported Midnight between Feb 17 and Feb 18 — Mar 5 12:02 AM, Newmarket, Weather by CustomWeather, © 2015

Note: Actual official high and low records may vary slightly from our data, if they occured in-between our weather recording intervals... More about our weather records

Advertising

Newmarket weather history for previous 24 hours

 ConditionsComfort  
Time TempWeatherWind HumidityBarometerVisibility
12:02 AM
Thu, Mar 5
9 °FLight snow. Overcast.10 mph85%30.14 "Hg2 mi
11:02 PM
Wed, Mar 4
10 °FLight snow. Overcast.13 mph85%30.12 "Hg1 mi
10:04 PM14 °FLight snow. Ice fog.8 mph85%30.05 "Hg1 mi
10:00 PM14 °FLight snow. Ice fog.9 mph85%30.09 "Hg1 mi
9:00 PM16 °FMostly cloudy.14 mph86%30.05 "Hg7 mi
8:55 PM16 °FMostly cloudy.8 mph86%30.01 "Hg8 mi
8:00 PM18 °FMostly cloudy.8 mph73%30.01 "Hg9 mi
7:00 PM18 °FOvercast.6 mph86%29.98 "Hg9 mi
5:00 PM25 °FOvercast.10 mph59%29.92 "Hg9 mi
4:00 PM27 °FMostly cloudy.17 mph54%29.91 "Hg9 mi
3:00 PM25 °FMostly cloudy.14 mph63%29.91 "Hg9 mi
2:00 PM25 °FOvercast.8 mph69%29.91 "Hg9 mi
1:00 PM23 °FLight snow. Overcast.9 mph74%29.90 "Hg5 mi
12:59 PM23 °FLight snow. Overcast.8 mph74%29.86 "Hg5 mi
12:00 PM25 °FOvercast.6 mph74%29.89 "Hg7 mi
11:00 AM25 °FOvercast.9 mph74%29.90 "Hg7 mi
10:00 AM25 °FLight snow. Mostly cloudy.13 mph86%29.87 "Hg5 mi
9:56 AM25 °FLight snow. Mostly cloudy.9 mph86%29.84 "Hg6 mi
9:00 AM28 °FOvercast.12 mph74%29.84 "Hg9 mi
8:00 AM27 °FOvercast.5 mph80%29.83 "Hg9 mi
7:00 AM27 °FMostly cloudy.2 mph80%29.80 "Hg9 mi
6:00 AM27 °FOvercast.6 mph80%29.79 "Hg9 mi
5:00 AM27 °FOvercast.9 mph74%29.76 "Hg9 mi
4:00 AM28 °FOvercast.17 mph74%29.74 "Hg9 mi
3:00 AM30 °FOvercast.9 mph75%29.72 "Hg9 mi
2:00 AM30 °FOvercast.7 mph80%29.70 "Hg9 mi
1:00 AM30 °FOvercast.10 mph80%29.67 "Hg9 mi
Weather by CustomWeather, © 2015

See weather overviewHow to use our weather pages